Flag for Cameroon Weather past 2 weeks in Yaoundé, Cameroon

Now
70 °F

Passing clouds.


Feels Like: 70 °F
Forecast: 67 / 91 °F
Wind: No wind

Location: Yaounde Airport

Current Time: Feb 28, 2015 at 1:53:29 AM

Latest Report: Feb 28, 2015 at 1:00 AM


Visibility: N/A

Pressure: 29.98 "Hg

Humidity: 88%

Dew point: 66 °F

Location of YaoundéLocation

Historic Weather in Yaoundé — Graph

°F

Yaoundé temperature yesterday

Maximum temperature yesterday: 84 °F (at 4:00 PM)
Minimum temperature yesterday: 68 °F (at 12:00 AM)
Average temperature yesterday: 73 °F

Past Weeks' High & Low Weather Summary

 TemperatureHumidityPressure
High91 °F (Feb 25, 4:00 PM)100% (Feb 13, 1:00 AM)30.09 "Hg (Feb 13, 1:00 AM)
Low64 °F (Feb 13, 1:00 AM)41% (Feb 25, 4:00 PM)29.80 "Hg (Feb 25, 4:00 PM)
Average76 °F79%29.95 "Hg
* Reported Feb 13 1:00 AM — Feb 28 1:00 AM, Yaoundé, Weather by CustomWeather, © 2015

Note: Actual official high and low records may vary slightly from our data, if they occured in-between our weather recording intervals... More about our weather records

Advertising

Yaoundé weather history for previous 24 hours

 ConditionsComfort  
Time TempWeatherWind HumidityBarometerVisibility
1:00 AM
Sat, Feb 28
70 °FPassing clouds.No wind88%29.98 "HgN/A
12:00 AM70 °FPassing clouds.No wind88%30.01 "HgN/A
11:00 PM
Fri, Feb 27
72 °FPassing clouds.3 mph88%30.04 "HgN/A
10:00 PM72 °FPassing clouds.2 mph88%30.01 "HgN/A
9:00 PM73 °FPassing clouds.2 mph83%30.01 "HgN/A
8:00 PM73 °FPassing clouds.3 mph89%29.98 "HgN/A
7:00 PM75 °FPassing clouds.1 mph78%29.95 "HgN/A
6:00 PM77 °FScattered clouds.9 mph79%29.92 "HgN/A
5:00 PM82 °FScattered clouds.1 mph62%29.92 "HgN/A
4:00 PM84 °FPartly sunny.2 mph58%29.92 "HgN/A
3:00 PM82 °FPartly sunny.1 mph58%29.92 "HgN/A
2:00 PM81 °FPartly sunny.3 mph66%29.95 "HgN/A
1:00 PM77 °FPartly sunny.5 mph69%29.98 "HgN/A
12:00 PM75 °FPartly sunny.7 mph74%30.01 "HgN/A
11:00 AM72 °FPartly sunny.6 mph88%30.04 "HgN/A
10:00 AM73 °FBroken clouds.3 mph83%30.01 "HgN/A
9:00 AM70 °FBroken clouds.2 mph94%30.01 "Hg5 mi
8:00 AM68 °FScattered clouds.2 mph94%29.98 "Hg5 mi
7:00 AM68 °FScattered clouds.3 mph94%29.95 "Hg5 mi
6:00 AM68 °FPassing clouds.No wind94%29.95 "Hg5 mi
5:00 AM68 °FPassing clouds.6 mph94%29.95 "Hg5 mi
4:00 AM68 °FPassing clouds.7 mph94%29.95 "Hg5 mi
3:00 AM68 °FPartly cloudy.5 mph94%29.98 "Hg5 mi
2:00 AM68 °FPassing clouds.3 mph94%29.98 "HgN/A
1:00 AM68 °FPassing clouds.3 mph94%29.98 "HgN/A
Weather by CustomWeather, © 2015

See weather overviewHow to use our weather pages